Tracking 33198 objects as of 13-Feb-2026
HD Live streaming from Space Station
objects crossing your sky now

SL-8 R/B

Track SL-8 R/B now!
10-day predictions


NORAD ID: 7434
Int'l Code: 1974-071B
Perigee: 757.2 km
Apogee: 786.1 km
Inclination: 74.0 °
Period: 100.1 minutes
Semi major axis: 7142 km
RCS: 4.4573 m2 (large)
Launch date: September 11, 1974
Source: Commonwealth of Independent States (former USSR) (CIS)
Launch site: PLESETSK MISSILE AND SPACE COMPLEX (PKMTR)

Note: This is a ROCKET BODY
Your satellite tracking list
Your tracking list is empty




NASA's NSSDC Master Catalog

Two Line Element Set (TLE):
1 07434U 74071B   26043.79189825  .00000236  00000-0  86203-4 0  9995
2 07434  74.0468 162.1386 0020255   7.7692 352.3772 14.38173149690691
Source of the keplerian elements: AFSPC